{"data":{"norad_id":58273,"epoch":"2026-09-19T12:20:38.854176Z","epoch_age_seconds":99835,"freshness":"FRESH","line1":"1 58273U 23174T   26262.51433859  .00067866  00000+0  93370-3 0  9995","line2":"2 58273  97.3788 353.8695 0006634 183.1455 176.9760 15.57027161160226","mean_motion":15.57027161,"eccentricity":0.0006634,"inclination_deg":97.3788,"raan_deg":353.8695,"arg_perigee_deg":183.1455,"mean_anomaly_deg":176.976,"bstar":0.0009337,"rev_number":16022,"period_min":92.483935802068,"perigee_km":391.77217760277,"apogee_km":400.76045592345,"semimajor_km":6774.4033167631,"source":"CELESTRAK","updated_at":"2026-09-20T09:00:34.710067Z"}}